Starlink 11368

operational
NORAD ID: 61583 Int'l Des: 2024-187 Owner: SPXS Country: US Constellation: starlink
LEOCIRCULAR

Über Starlink 11368

Beschreibung wird geladen...

Live-Position

3D-Globus wird geladen...

Nächste Überflüge

Höhenverlauf

Altitude vs Time

uPlot chart will show altitude changes over time

Zweizeiliger Elementsatz

1 61583U 24187K 25306.01183103 .00002344 00000-0 24206-4 0 9999
2 61583 53.1602 205.9086 0002249 98.6599 261.4674 15.69717980 60644
Epoch: 2. Nov. 2025 • Age: 33 hours

Aktueller Status

Höhe 360.5 km
Geschwindigkeit 7.69 km/s
Subsatellitenpunkt -1.39°S, 159.84°W
Startdatum 18. Okt. 2024
Alter 1 years
Typ internet

Technische Details

Klassifizierung Payload
Masse 960.00 kg
Trockenmasse 910.00 kg
Gesamtmasse 960.00 kg
Länge 0.30 m
Durchmesser 4.10 m
Spannweite 29.00 m
Form Box + pan
Hersteller SPXS
Bus-Typ Starlink V2MD
Phasenstatus In Orbit
Besitzer/Staat SPXS/US

Große Konstellationen

Loading constellations...